Location: Newark
(45.8667°N, 9.7333°E)
Time: 15:22:57
(UTC+00:00)

A-11 Canister half - Pass Details

Date: 21 January 2020
Orbit: 1517 x 1683 km, 47.2° (Epoch: 26 February)

Event Time Altitude Azimuth Distance (km) Brightness Sun altitude
Rises 08:33:31 0° 284° (WNW) 4,681 11.0 12.7°
Reaches altitude 10° 08:39:15 10° 257° (WSW) 3,718 10.8 13.4°
Maximum altitude 08:42:19 12° 237° (WSW) 3,576 10.9 13.7°
Drops below altitude 10° 08:45:24 10° 217° (SW) 3,749 11.3 14.1°
Sets 08:51:19 0° 190° (S) 4,769 12.2 14.7°
